Location: Black Swamp Observatory
(41.3920°N, 84.1250°W)
Time: 09:34:53
(UTC-05:00)

X-37B - Visible Passes

Search period start: 28 November 2021 00:00
Search period end: 08 December 2021 00:00
Orbit: 330 x 341 km, 45.0° (Epoch: 20 November)

Date Brightness Start Highest point End Pass type
(mag) Time Alt. Az. Time Alt. Az. Time Alt. Az.
04 Dec 2.8 18:54:14 10° SSW 18:55:10 15° S 18:55:10 15° S visible
05 Dec 2.8 19:13:50 10° SW 19:14:56 20° SW 19:14:56 20° SW visible
06 Dec 2.3 17:59:41 10° SSW 18:01:45 18° SE 18:03:24 12° ESE visible
06 Dec 3.7 19:34:08 10° WSW 19:34:38 14° WSW 19:34:38 14° WSW visible
07 Dec 0.9 18:19:15 10° SW 18:22:01 44° SSE 18:23:02 29° E visible
